Regional Weather Roundup
Issued by NWS Albany, NY

Home | Current Version | Previous Version | Text Only | Print | Product List | Glossary On
Versions: 1 2 3 4 5 6 7 8 9 10 11 12 13 14 15 16 17 18 19 20 21 22 23 24 25 26 27 28 29 30 31 32 33 34 35 36 37 38 39 40 41 42 43 44 45 46 47 48 49 50
097
ASUS41 KALY 250310
RWRALY

NEW YORK STATE HOURLY WEATHER ROUNDUP
NATIONAL WEATHER SERVICE ALBANY NY
1000 PM EST FRI FEB 24 2017

NOTE: "FAIR" INDICATES FEW OR NO CLOUDS BELOW 12,000 FEET WITH NO
SIGNIFICANT WEATHER AND/OR NO OBSTRUCTIONS TO VISIBILITY.

NYZ032-033-038>043-046>054-057>066-NYZ062>081-082-084-250400-
EAST


CITY           SKY/WX    TMP DP  RH WIND       PRES   REMARKS
ALBANY         MOCLDY    62  51  67 S13G21    29.79R
GLENS FALLS    FOG       42  40  92 CALM      29.79R VSB 1/4
POUGHKEEPSIE   CLEAR     60  52  74 SW6       29.82S
NEWBURGH       CLEAR     63  55  77 S7        29.84S
MONTGOMERY     CLEAR     58  51  78 SW3       29.81S
WHITE PLAINS   FOG       57  55  93 VRB7      29.86S VSB 1
ISLIP          CLOUDY    52  52 100 S13       29.88S
NEW YORK CITY  PTCLDY    58  54  86 S9        29.86S
CENTRAL PARK   CLEAR     61  56  83 VRB5      29.88F
$$

NYZ005>009-017-018-044>046-055-056-250400-
CENTRAL


CITY           SKY/WX    TMP DP  RH WIND       PRES   REMARKS
FULTON         CLOUDY    59  49  69 VRB3      29.63F
SYRACUSE       CLOUDY    65  51  60 S12G22    29.64F
ROME           CLOUDY    61  49  64 E8        29.70F
ELMIRA         CLOUDY    65  50  58 S5        29.69F
BINGHAMTON     PTCLDY    59  49  69 S12       29.74F
MONTICELLO     CLEAR     57  52  82 S5        29.85R
$$

NYZ026>034-041>043-087-250400-
NORTH


CITY           SKY/WX    TMP DP  RH WIND       PRES   REMARKS
WATERTOWN      CLOUDY    38  38 100 NE13      29.65F FOG     WCI  30
FORT DRUM      NOT AVBL
OGDENSBURG     CLOUDY    36  35  97 NE10      29.72F FOG     WCI  28
MASSENA        CLOUDY    35  34  96 NE13      29.77F WCI  26
SARANAC LAKE   PTCLDY    33  33 100 CALM      29.70S
PLATTSBURGH    CLOUDY    36  35  96 N6        29.78R FOG     WCI  31
$$

NYZ001>004-010>016-019>021-085-250400-
WEST


CITY           SKY/WX    TMP DP  RH WIND       PRES   REMARKS
NIAGARA FALLS  PTCLDY    46  41  82 SE7       29.54F
BUFFALO        CLOUDY    50  45  83 E6        29.55F
DUNKIRK        PTCLDY    65  50  58 S14       29.54F
JAMESTOWN        N/A     63  46  55 S10       29.61F
WELLSVILLE     CLEAR     64  47  53 S9G23     29.67F
ROCHESTER      CLOUDY    42  40  92 S3        29.60F
PENN YAN       CLOUDY    65  48  54 S12       29.66F
$$

             KEY
       WCI = WIND CHILL INDEX
       VSB = VISIBILITY
       HX  = HEAT INDEX
$$




USA.gov is the U.S. government's official web portal to all federal, state and local government web resources and services.